COSMOS 2251 DEB, 35028

Orbit data source: Space-Track

COSMOS 2251 DEB, 35028 is space debris in LEO originally from a launch on Wed, 16 Jun 1993 UTC launched from the Plesetsk Missile And Space Complex (PKMTR). The debris from Iridium 33, an American commercial communications satellite, has been tracked extensively since its accidental collision with the defunct Russian satellite Cosmos 2251 in 2009. This event, occurring at high speed in low Earth orbit (LEO), generated thousands of pieces of space debris, significantly increasing the risk of further collisions. The Iridium 33 debris cloud has impacted space traffic management and orbital debris mitigation strategies, making it a subject of ongoing study in space situational awareness.

Loading next visibility...
Identifier
35028, 1993-036AGR
Orbit
LEO
Country
Flag of CISCIS
Related business
Manufacturer
Unknown
Mission
Spacecraft
Bus & Motor
Unknown
Mass
Unknown
Launch date (UTC)
1993-06-16 (33 years ago)
Launch vehicle
Unknown
Launch site
Plesetsk Missile And Space Complex (PKMTR)
Object type
Payload
Rocket body
Debris
Shape & HBR
Unknown shape, 0.1 m
Radar Cross Section
Small (<0.1 m²)

Expand to show TLE details & history
Last TLE update: 2 days ago

TLE from 2 days ago
0 COSMOS 2251 DEB
1 35028U 93036AGR 26262.26203999  .00000181  00000-0  45374-4 0  9994
2 35028  74.0359  98.5357 0082933 162.6576 313.7048 14.56765882923702
Epoch: 2026-09-19T06:17Z
TLE epoch observation values (Epoch: 2026-09-19T06:17:20.255Z)
Latitude
60.16629°
Longitude
156.28413°
Altitude
673.195 km
Speed
7.548 km/s
True Right ascension
16h 35m 09s
True Declination
60° 00' 57"
Sunlit
Object was in daylight at epoch
Visualization orbit readout
Latitude
Unknown
Longitude
Unknown
Altitude
Unknown
Speed
Unknown
Apparent Right ascension
Unknown
Apparent Declination
Unknown
Sunlit
N/A
Visualization observer readout
Local Sidereal Time
15:02:59
Azimuth
Unknown
Elevation
Unknown
Doppler factor
Unknown
Orbital elements
Apogee altitude
759.948 km
Perigee altitude
642.525 km
Semi-major axis
7,079.374 km
Eccentricity
0.00829
Inclination
74.0359°
RAAN
98.5357°
Arg. of periapsis
162.6576°
True anomaly
313.01285°
Mean anomaly
313.7048°
Eccentric anomaly
313.35932°
Mean motion
3.64377 °/min
Orbital period
98.8 mins
BSTAR
0.000045374

Documentation

Showing up to 5 results
|